When you browse on this site, cookies collect data to enhance your experience and personalize the content and advertising you see.
Visit our Privacy Policy to learn more. By continuing to use the site, you agree to this use of cookies and data.
  • In Deutschland
  • Länderverzeichnis
  • Für 7 Tage
  • Wassertemperatur
  • Satellitenkarten
  • Wetterkarte
  • Widgets
  • user-avatar
    Anmelden

    Stündliche Wetter Lipinki

    Heute, 20 Juli, Samstag

    Zeit Temperatur Niederschläge Wind Luftdruck Luftfeuchtigkeit
    00:00 +19°C° 0.3 mm 2 m/S 752 mmHg 76%
    01:00 +18°C° 0 mm 2 m/S 752 mmHg 80%
    02:00 +18°C° 0.4 mm 2 m/S 752 mmHg 83%
    03:00 +18°C° 0.4 mm 2 m/S 752 mmHg 85%
    04:00 +18°C° 0.4 mm 2 m/S 752 mmHg 87%
    05:00 +19°C° 0.1 mm 2 m/S 752 mmHg 85%
    06:00 +20°C° 0.1 mm 2 m/S 752 mmHg 82%
    07:00 +20°C° 0.1 mm 2 m/S 753 mmHg 79%
    08:00 +23°C° 0 mm 2 m/S 753 mmHg 73%
    09:00 +24°C° 0 mm 2 m/S 753 mmHg 66%
    10:00 +26°C° 0 mm 2 m/S 753 mmHg 59%
    11:00 +27°C° 0.1 mm 2 m/S 753 mmHg 55%
    12:00 +28°C° 0.1 mm 2 m/S 753 mmHg 51%
    13:00 +29°C° 0.1 mm 2 m/S 752 mmHg 46%
    14:00 +28°C° 0.4 mm 2 m/S 752 mmHg 50%
    15:00 +28°C° 0.4 mm 2 m/S 753 mmHg 53%
    16:00 +27°C° 0.4 mm 2 m/S 753 mmHg 56%
    17:00 +26°C° 0.1 mm 1 m/S 753 mmHg 60%
    18:00 +25°C° 0.1 mm 1 m/S 752 mmHg 65%
    19:00 +24°C° 0.1 mm 1 m/S 752 mmHg 69%
    20:00 +23°C° 0 mm 1 m/S 753 mmHg 71%
    21:00 +23°C° 0 mm 1 m/S 753 mmHg 72%
    22:00 +22°C° 0 mm 1 m/S 753 mmHg 74%
    23:00 +21°C° 0 mm 1 m/S 753 mmHg 75%

    Morgen, 21 Juli, Sonntag

    Zeit Temperatur Niederschläge Wind Luftdruck Luftfeuchtigkeit
    00:00 +21°C° 0 mm 1 m/S 753 mmHg 75%
    01:00 +21°C° 0 mm 1 m/S 753 mmHg 76%
    02:00 +20°C° 0 mm 1 m/S 753 mmHg 77%
    03:00 +20°C° 0 mm 1 m/S 753 mmHg 78%
    04:00 +20°C° 0 mm 1 m/S 753 mmHg 78%
    05:00 +20°C° 0 mm 2 m/S 752 mmHg 74%
    06:00 +23°C° 0 mm 2 m/S 752 mmHg 69%
    07:00 +24°C° 0 mm 2 m/S 752 mmHg 64%
    08:00 +26°C° 0 mm 2 m/S 752 mmHg 60%
    09:00 +27°C° 0 mm 3 m/S 753 mmHg 56%
    10:00 +29°C° 0 mm 4 m/S 753 mmHg 52%
    11:00 +29°C° 0.1 mm 4 m/S 752 mmHg 52%
    12:00 +30°C° 0.1 mm 4 m/S 752 mmHg 52%
    13:00 +32°C° 0.1 mm 4 m/S 752 mmHg 51%
    14:00 +30°C° 1.9 mm 3 m/S 752 mmHg 55%
    15:00 +29°C° 1.9 mm 3 m/S 752 mmHg 58%
    16:00 +29°C° 1.9 mm 3 m/S 752 mmHg 61%
    17:00 +27°C° 1.7 mm 3 m/S 752 mmHg 67%
    18:00 +25°C° 1.7 mm 3 m/S 752 mmHg 72%
    19:00 +23°C° 1.7 mm 4 m/S 752 mmHg 78%
    20:00 +22°C° 0.2 mm 4 m/S 753 mmHg 81%
    21:00 +21°C° 0.2 mm 4 m/S 753 mmHg 84%
    22:00 +20°C° 0.2 mm 4 m/S 753 mmHg 87%
    23:00 +20°C° 0 mm 3 m/S 754 mmHg 88%

    übermorgen, 22 Juli, Montag

    Zeit Temperatur Niederschläge Wind Luftdruck Luftfeuchtigkeit
    00:00 +19°C° 0 mm 3 m/S 754 mmHg 90%
    01:00 +18°C° 0 mm 3 m/S 754 mmHg 91%
    02:00 +18°C° 0 mm 3 m/S 754 mmHg 90%
    03:00 +17°C° 0 mm 3 m/S 755 mmHg 89%
    04:00 +17°C° 0 mm 3 m/S 755 mmHg 88%
    05:00 +18°C° 0 mm 4 m/S 755 mmHg 85%
    06:00 +17°C° 0 mm 5 m/S 755 mmHg 83%
    07:00 +19°C° 0 mm 5 m/S 755 mmHg 80%
    08:00 +19°C° 0.1 mm 5 m/S 756 mmHg 79%
    09:00 +19°C° 0.1 mm 5 m/S 756 mmHg 79%
    10:00 +20°C° 0.1 mm 5 m/S 756 mmHg 78%
    11:00 +21°C° 0.1 mm 5 m/S 756 mmHg 71%
    12:00 +22°C° 0.1 mm 6 m/S 756 mmHg 64%
    13:00 +24°C° 0.1 mm 6 m/S 756 mmHg 57%
    14:00 +24°C° 0 mm 6 m/S 756 mmHg 56%
    15:00 +24°C° 0 mm 6 m/S 756 mmHg 55%
    16:00 +24°C° 0 mm 6 m/S 756 mmHg 54%
    17:00 +23°C° 0 mm 5 m/S 756 mmHg 59%
    18:00 +22°C° 0 mm 4 m/S 756 mmHg 64%
    19:00 +20°C° 0 mm 3 m/S 756 mmHg 69%
    20:00 +19°C° 0 mm 3 m/S 756 mmHg 72%
    21:00 +18°C° 0 mm 3 m/S 757 mmHg 75%
    22:00 +17°C° 0 mm 2 m/S 757 mmHg 78%
    23:00 +16°C° 0 mm 3 m/S 757 mmHg 80%

    23 Juli, Dienstag

    Zeit Temperatur Niederschläge Wind Luftdruck Luftfeuchtigkeit
    00:00 +16°C° 0 mm 3 m/S 757 mmHg 81%
    01:00 +14°C° 0 mm 3 m/S 757 mmHg 83%
    02:00 +14°C° 0 mm 3 m/S 756 mmHg 84%
    03:00 +14°C° 0 mm 3 m/S 756 mmHg 86%
    04:00 +13°C° 0 mm 3 m/S 756 mmHg 88%
    05:00 +16°C° 0 mm 3 m/S 756 mmHg 83%
    06:00 +17°C° 0 mm 4 m/S 756 mmHg 79%
    07:00 +18°C° 0 mm 4 m/S 756 mmHg 75%
    08:00 +20°C° 0 mm 4 m/S 756 mmHg 71%
    09:00 +21°C° 0 mm 5 m/S 756 mmHg 66%
    10:00 +23°C° 0 mm 5 m/S 756 mmHg 62%
    11:00 +25°C° 0.1 mm 5 m/S 756 mmHg 59%
    12:00 +25°C° 0.1 mm 5 m/S 755 mmHg 57%
    13:00 +26°C° 0.1 mm 5 m/S 755 mmHg 54%
    14:00 +26°C° 0 mm 5 m/S 755 mmHg 55%
    15:00 +26°C° 0 mm 5 m/S 755 mmHg 56%
    16:00 +26°C° 0 mm 5 m/S 755 mmHg 57%
    17:00 +25°C° 0 mm 5 m/S 755 mmHg 63%
    18:00 +23°C° 0 mm 4 m/S 755 mmHg 68%
    19:00 +22°C° 0 mm 3 m/S 755 mmHg 74%
    20:00 +21°C° 0 mm 3 m/S 755 mmHg 78%
    21:00 +20°C° 0 mm 2 m/S 755 mmHg 83%
    22:00 +19°C° 0 mm 2 m/S 756 mmHg 87%
    23:00 +18°C° 0 mm 2 m/S 756 mmHg 88%

    24 Juli, Mittwoch

    Zeit Temperatur Niederschläge Wind Luftdruck Luftfeuchtigkeit
    00:00 +17°C° 0 mm 2 m/S 756 mmHg 89%
    01:00 +17°C° 0 mm 2 m/S 756 mmHg 91%
    02:00 +16°C° 0 mm 2 m/S 756 mmHg 91%
    03:00 +16°C° 0 mm 2 m/S 755 mmHg 92%
    04:00 +16°C° 0 mm 2 m/S 755 mmHg 93%
    05:00 +17°C° 0 mm 2 m/S 755 mmHg 87%
    06:00 +20°C° 0 mm 1 m/S 756 mmHg 81%
    07:00 +21°C° 0 mm 1 m/S 756 mmHg 75%
    08:00 +21°C° 0 mm 2 m/S 756 mmHg 70%
    09:00 +24°C° 0 mm 2 m/S 756 mmHg 64%
    10:00 +25°C° 0 mm 2 m/S 756 mmHg 58%
    11:00 +26°C° 0 mm 2 m/S 756 mmHg 57%
    12:00 +27°C° 0 mm 3 m/S 756 mmHg 55%
    13:00 +27°C° 0 mm 3 m/S 756 mmHg 54%
    14:00 +27°C° 0 mm 3 m/S 755 mmHg 55%
    15:00 +27°C° 0 mm 3 m/S 755 mmHg 55%
    16:00 +27°C° 0 mm 3 m/S 755 mmHg 56%
    17:00 +26°C° 0 mm 2 m/S 755 mmHg 61%
    18:00 +25°C° 0 mm 2 m/S 755 mmHg 67%
    19:00 +24°C° 0 mm 1 m/S 755 mmHg 72%
    20:00 +23°C° 0 mm 1 m/S 756 mmHg 74%
    21:00 +23°C° 0 mm 1 m/S 756 mmHg 77%
    22:00 +22°C° 0 mm 1 m/S 756 mmHg 79%
    23:00 +19°C° 0 mm 0 m/S 756 mmHg 82%

    25 Juli, Donnerstag

    Zeit Temperatur Niederschläge Wind Luftdruck Luftfeuchtigkeit
    00:00 +19°C° 0 mm 0 m/S 756 mmHg 84%
    01:00 +18°C° 0 mm 0 m/S 757 mmHg 87%
    02:00 +18°C° 0 mm 0 m/S 757 mmHg 87%
    03:00 +18°C° 0 mm 0 m/S 757 mmHg 88%
    04:00 +18°C° 0 mm 0 m/S 757 mmHg 88%
    05:00 +19°C° 0 mm 0 m/S 757 mmHg 83%
    06:00 +21°C° 0 mm 0 m/S 757 mmHg 77%
    07:00 +24°C° 0 mm 1 m/S 757 mmHg 72%
    08:00 +26°C° 0 mm 1 m/S 757 mmHg 66%
    09:00 +27°C° 0 mm 1 m/S 758 mmHg 61%
    10:00 +28°C° 0 mm 1 m/S 758 mmHg 56%
    11:00 +29°C° 0 mm 1 m/S 758 mmHg 52%
    12:00 +30°C° 0 mm 1 m/S 757 mmHg 49%
    13:00 +30°C° 0 mm 1 m/S 757 mmHg 45%
    14:00 +30°C° 0 mm 2 m/S 757 mmHg 45%
    15:00 +30°C° 0 mm 2 m/S 757 mmHg 45%
    16:00 +30°C° 0 mm 2 m/S 757 mmHg 45%
    17:00 +29°C° 0 mm 2 m/S 757 mmHg 51%
    18:00 +28°C° 0 mm 2 m/S 757 mmHg 57%
    19:00 +26°C° 0 mm 2 m/S 757 mmHg 63%
    20:00 +25°C° 0 mm 1 m/S 757 mmHg 66%
    21:00 +24°C° 0 mm 1 m/S 757 mmHg 69%
    22:00 +23°C° 0 mm 1 m/S 757 mmHg 72%
    23:00 +23°C° 0 mm 1 m/S 757 mmHg 75%
    Mehr zeigen